Location: Gälforsberget
(66.6500°N, 22.4167°E)
Time: 21:38:34
(UTC+00:00)

Cosmos 2285 Rocket - Pass Details

Date: 11 April 2026
Orbit: 970 x 997 km, 74.0° (Epoch: 16 May)

Event Time Altitude Azimuth Distance (km) Brightness Sun altitude
Exits shadow 22:19:17 16° 208° (SSW) 2,350 5.5 -14.7°
Maximum altitude 22:24:32 74° 126° (SE) 1,025 4.0 -14.8°
Drops below altitude 10° 22:30:52 10° 43° (NE) 2,740 7.0 -14.8°
Sets 22:33:24 0° 42° (NE) 3,687 7.8 -14.8°
